Time,TemperatureF,DewpointF,PressureIn,WindDirection,WindDirectionDegrees,WindSpeedMPH,WindSpeedGustMPH,Humidity,HourlyPrecipIn,Conditions,Clouds,dailyrainin,SoftwareType,DateUTC
2013-02-23 00:00:00,37.0,36.8,30.04,South,180,0.0,1.1,99,0.00,,---,0.45,VWS V14.00,2013-02-23 05:00:00,
2013-02-23 00:05:00,37.0,36.8,30.03,South,180,0.0,0.0,99,0.00,,---,0.00,VWS V14.00,2013-02-23 05:05:00,
2013-02-23 00:10:00,37.0,36.8,30.03,South,180,0.0,0.0,99,0.00,,---,0.00,VWS V14.00,2013-02-23 05:10:00,
2013-02-23 00:15:00,37.0,36.8,30.03,South,180,0.0,0.0,99,0.00,,---,0.00,VWS V14.00,2013-02-23 05:15:00,
2013-02-23 00:20:00,37.2,37.0,30.04,South,180,0.0,0.0,99,0.00,,---,0.00,VWS V14.00,2013-02-23 05:20:00,
2013-02-23 00:25:00,37.2,37.0,30.03,South,180,0.0,0.0,99,0.00,,---,0.00,VWS V14.00,2013-02-23 05:25:00,
2013-02-23 00:30:00,37.2,37.0,30.02,South,180,0.0,0.0,99,0.00,,---,0.00,VWS V14.00,2013-02-23 05:30:00,
2013-02-23 00:35:00,37.2,37.0,30.02,South,180,0.0,0.0,99,0.00,,---,0.00,VWS V14.00,2013-02-23 05:35:00,
2013-02-23 00:41:00,37.0,36.8,30.02,South,180,0.0,0.0,99,0.00,,---,0.00,VWS V14.00,2013-02-23 05:41:00,
2013-02-23 00:46:00,37.0,36.8,30.02,South,180,0.0,0.0,99,0.02,,---,0.02,VWS V14.00,2013-02-23 05:46:00,
2013-02-23 00:51:00,37.0,36.8,30.01,South,180,1.7,1.7,99,0.02,,---,0.02,VWS V14.00,2013-02-23 05:51:00,
2013-02-23 00:56:00,37.0,36.8,30.00,South,180,0.0,1.7,99,0.02,,---,0.02,VWS V14.00,2013-02-23 05:56:00,
2013-02-23 01:01:00,37.0,36.8,30.00,South,180,0.0,0.0,99,0.02,,---,0.02,VWS V14.00,2013-02-23 06:01:00,
2013-02-23 01:06:00,37.0,36.8,30.00,South,180,0.0,0.0,99,0.02,,---,0.02,VWS V14.00,2013-02-23 06:06:00,
2013-02-23 01:11:00,37.0,36.8,30.00,South,180,0.0,0.0,99,0.04,,---,0.04,VWS V14.00,2013-02-23 06:11:00,
2013-02-23 01:16:00,37.0,36.8,29.99,South,180,0.0,0.0,99,0.04,,---,0.22,VWS V14.00,2013-02-23 06:16:00,
2013-02-23 01:21:00,37.0,36.8,29.99,South,180,0.0,0.0,99,0.04,,---,0.04,VWS V14.00,2013-02-23 06:21:00,
2013-02-23 01:26:00,37.0,36.8,29.99,South,180,0.0,0.0,99,0.04,,---,0.04,VWS V14.00,2013-02-23 06:26:00,
2013-02-23 01:31:00,37.2,37.0,29.99,South,180,0.0,0.0,99,0.04,,---,0.04,VWS V14.00,2013-02-23 06:31:00,
2013-02-23 01:36:00,37.2,37.0,29.98,South,180,0.0,0.0,99,0.04,,---,0.04,VWS V14.00,2013-02-23 06:36:00,
2013-02-23 01:41:00,37.0,36.8,29.98,South,180,0.0,0.0,99,0.04,,---,0.04,VWS V14.00,2013-02-23 06:41:00,
2013-02-23 01:46:00,37.2,37.0,29.98,South,180,0.0,0.0,99,0.04,,---,0.04,VWS V14.00,2013-02-23 06:46:00,
2013-02-23 01:51:00,37.2,37.0,29.98,South,180,0.0,0.0,99,0.02,,---,0.04,VWS V14.00,2013-02-23 06:51:00,
2013-02-23 01:56:00,37.2,37.0,29.97,South,180,0.0,0.0,99,0.02,,---,0.04,VWS V14.00,2013-02-23 06:56:00,
2013-02-23 02:01:00,37.2,37.0,29.98,South,180,0.0,0.0,99,0.02,,---,0.04,VWS V14.00,2013-02-23 07:01:00,
2013-02-23 02:06:00,37.2,37.0,29.98,South,180,0.0,0.0,99,0.02,,---,0.04,VWS V14.00,2013-02-23 07:06:00,
2013-02-23 02:11:00,37.2,37.0,29.97,South,180,0.0,0.0,99,0.00,,---,0.04,VWS V14.00,2013-02-23 07:11:00,
2013-02-23 02:16:00,37.2,37.0,29.97,South,180,0.0,0.0,99,0.00,,---,0.04,VWS V14.00,2013-02-23 07:16:00,
2013-02-23 02:21:00,37.2,37.0,29.97,South,180,0.0,0.0,99,0.00,,---,0.04,VWS V14.00,2013-02-23 07:21:00,
2013-02-23 02:26:00,37.2,37.0,29.98,South,180,0.0,0.0,99,0.02,,---,0.06,VWS V14.00,2013-02-23 07:26:00,
2013-02-23 02:31:00,37.0,36.8,29.98,South,180,0.0,0.0,99,0.02,,---,0.06,VWS V14.00,2013-02-23 07:31:00,
2013-02-23 02:36:00,37.2,37.0,29.98,South,180,0.0,0.0,99,0.02,,---,0.06,VWS V14.00,2013-02-23 07:36:00,
2013-02-23 02:41:00,37.2,37.0,29.98,South,180,0.0,0.0,99,0.02,,---,0.06,VWS V14.00,2013-02-23 07:41:00,
2013-02-23 02:46:00,37.2,37.0,29.98,South,180,0.0,0.0,99,0.02,,---,0.06,VWS V14.00,2013-02-23 07:46:00,
2013-02-23 02:51:00,37.2,37.0,29.98,South,180,0.0,0.0,99,0.02,,---,0.06,VWS V14.00,2013-02-23 07:51:00,
2013-02-23 02:56:00,37.2,37.0,29.98,South,180,0.0,0.0,99,0.02,,---,0.06,VWS V14.00,2013-02-23 07:56:00,
2013-02-23 03:01:00,37.2,37.0,29.98,South,180,0.0,0.0,99,0.02,,---,0.06,VWS V14.00,2013-02-23 08:01:00,
2013-02-23 03:06:00,37.2,37.2,29.97,South,180,0.0,0.0,100,0.02,,---,0.06,VWS V14.00,2013-02-23 08:06:00,
2013-02-23 03:11:00,37.2,37.2,29.97,South,180,0.0,0.0,100,0.04,,---,0.08,VWS V14.00,2013-02-23 08:11:00,
2013-02-23 03:16:00,37.2,37.2,29.96,South,180,0.0,0.0,100,0.04,,---,0.08,VWS V14.00,2013-02-23 08:16:00,
2013-02-23 03:21:00,37.4,37.4,29.96,South,180,0.0,0.0,100,0.04,,---,0.08,VWS V14.00,2013-02-23 08:21:00,
2013-02-23 03:26:00,37.4,37.4,29.95,South,180,0.0,0.0,100,0.06,,---,0.10,VWS V14.00,2013-02-23 08:26:00,
2013-02-23 03:31:00,37.4,37.4,29.95,South,180,0.0,0.0,100,0.04,,---,0.10,VWS V14.00,2013-02-23 08:31:00,
2013-02-23 03:37:00,37.5,37.5,29.94,South,180,0.0,0.0,100,0.04,,---,0.10,VWS V14.00,2013-02-23 08:37:00,
2013-02-23 03:42:00,37.5,37.5,29.94,South,180,0.0,0.0,100,0.04,,---,0.10,VWS V14.00,2013-02-23 08:42:00,
2013-02-23 03:47:00,37.5,37.5,29.93,South,180,0.0,0.0,100,0.04,,---,0.10,VWS V14.00,2013-02-23 08:47:00,
2013-02-23 03:52:00,37.5,37.5,29.93,South,180,0.0,0.0,100,0.04,,---,0.10,VWS V14.00,2013-02-23 08:52:00,
2013-02-23 03:57:00,37.7,37.7,29.93,South,180,0.0,0.0,100,0.04,,---,0.10,VWS V14.00,2013-02-23 08:57:00,
2013-02-23 04:02:00,37.5,37.5,29.93,South,180,0.0,0.0,100,0.04,,---,0.10,VWS V14.00,2013-02-23 09:02:00,
2013-02-23 04:07:00,37.7,37.7,29.94,South,180,0.0,0.0,100,0.04,,---,0.10,VWS V14.00,2013-02-23 09:07:00,
2013-02-23 04:12:00,37.7,37.7,29.95,South,180,0.0,0.0,100,0.02,,---,0.10,VWS V14.00,2013-02-23 09:12:00,
2013-02-23 04:17:00,37.9,37.9,29.94,South,180,0.0,0.0,100,0.02,,---,0.10,VWS V14.00,2013-02-23 09:17:00,
2013-02-23 04:22:00,37.9,37.9,29.94,South,180,0.0,0.0,100,0.02,,---,0.10,VWS V14.00,2013-02-23 09:22:00,
2013-02-23 04:27:00,37.9,37.9,29.94,South,180,0.0,0.0,100,0.04,,---,0.12,VWS V14.00,2013-02-23 09:27:00,
2013-02-23 04:32:00,38.1,38.1,29.95,South,180,0.0,0.0,100,0.02,,---,0.12,VWS V14.00,2013-02-23 09:32:00,
2013-02-23 04:37:00,38.1,38.1,29.94,South,180,0.0,0.0,100,0.02,,---,0.12,VWS V14.00,2013-02-23 09:37:00,
2013-02-23 04:42:00,38.3,38.3,29.92,South,180,0.0,0.0,100,0.02,,---,0.12,VWS V14.00,2013-02-23 09:42:00,
2013-02-23 04:47:00,38.3,38.3,29.92,South,180,0.0,0.0,100,0.04,,---,0.14,VWS V14.00,2013-02-23 09:47:00,
2013-02-23 04:52:00,38.4,38.4,29.90,South,180,0.0,0.0,100,0.04,,---,0.14,VWS V14.00,2013-02-23 09:52:00,
2013-02-23 04:57:00,38.4,38.4,29.90,South,180,0.0,0.0,100,0.04,,---,0.14,VWS V14.00,2013-02-23 09:57:00,
2013-02-23 05:02:00,38.4,38.4,29.90,South,180,0.0,0.0,100,0.04,,---,0.14,VWS V14.00,2013-02-23 10:02:00,
2013-02-23 05:07:00,38.3,38.3,29.90,South,180,0.0,0.0,100,0.04,,---,0.14,VWS V14.00,2013-02-23 10:07:00,
2013-02-23 05:12:00,38.3,38.3,29.90,South,180,0.0,0.0,100,0.04,,---,0.14,VWS V14.00,2013-02-23 10:12:00,
2013-02-23 05:17:00,38.3,38.3,29.90,South,180,0.0,0.0,100,0.04,,---,0.14,VWS V14.00,2013-02-23 10:17:00,
2013-02-23 05:22:00,38.3,38.3,29.90,South,180,0.0,0.0,100,0.04,,---,0.14,VWS V14.00,2013-02-23 10:22:00,
2013-02-23 05:27:00,38.4,38.4,29.91,South,180,0.0,0.0,100,0.04,,---,0.14,VWS V14.00,2013-02-23 10:27:00,
2013-02-23 05:32:00,38.8,38.8,29.92,South,180,0.0,0.0,100,0.02,,---,0.14,VWS V14.00,2013-02-23 10:32:00,
2013-02-23 05:37:00,39.0,39.0,29.92,South,180,0.0,0.0,100,0.02,,---,0.14,VWS V14.00,2013-02-23 10:37:00,
2013-02-23 05:42:00,39.0,39.0,29.92,South,180,0.0,0.0,100,0.02,,---,0.14,VWS V14.00,2013-02-23 10:42:00,
2013-02-23 05:47:00,39.3,39.3,29.91,South,180,0.0,0.0,100,0.02,,---,0.14,VWS V14.00,2013-02-23 10:47:00,
2013-02-23 05:52:00,39.3,39.3,29.91,South,180,0.0,0.0,100,0.02,,---,0.16,VWS V14.00,2013-02-23 10:52:00,
2013-02-23 05:57:00,39.5,39.5,29.90,South,180,0.0,0.0,100,0.02,,---,0.16,VWS V14.00,2013-02-23 10:57:00,
2013-02-23 06:02:00,39.7,39.7,29.90,South,180,0.0,0.0,100,0.02,,---,0.16,VWS V14.00,2013-02-23 11:02:00,
2013-02-23 06:07:00,39.7,39.7,29.90,South,180,0.0,0.0,100,0.02,,---,0.16,VWS V14.00,2013-02-23 11:07:00,
2013-02-23 06:12:00,39.7,39.7,29.90,South,180,0.0,0.0,100,0.04,,---,0.19,VWS V14.00,2013-02-23 11:12:00,
2013-02-23 06:17:00,39.7,39.7,29.90,South,180,0.0,0.0,100,0.06,,---,0.20,VWS V14.00,2013-02-23 11:17:00,
2013-02-23 06:22:00,39.7,39.7,29.90,South,180,0.0,0.0,100,0.06,,---,0.20,VWS V14.00,2013-02-23 11:22:00,
2013-02-23 06:27:00,39.9,39.9,29.89,South,180,0.0,0.0,100,0.06,,---,0.20,VWS V14.00,2013-02-23 11:27:00,
2013-02-23 06:32:00,39.9,39.9,29.90,South,180,0.0,0.0,100,0.06,,---,0.20,VWS V14.00,2013-02-23 11:32:00,
2013-02-23 06:37:00,39.9,39.9,29.89,South,180,0.0,0.0,100,0.06,,---,0.20,VWS V14.00,2013-02-23 11:37:00,
2013-02-23 06:42:00,40.1,40.1,29.89,South,180,0.0,0.0,100,0.06,,---,0.20,VWS V14.00,2013-02-23 11:42:00,
2013-02-23 06:47:00,40.2,40.2,29.90,South,180,0.0,0.0,100,0.06,,---,0.20,VWS V14.00,2013-02-23 11:47:00,
2013-02-23 06:53:00,40.2,40.2,29.90,South,180,0.0,0.0,100,0.08,,---,0.22,VWS V14.00,2013-02-23 11:53:00,
2013-02-23 06:58:00,40.2,40.2,29.91,South,180,0.0,0.0,100,0.08,,---,0.22,VWS V14.00,2013-02-23 11:58:00,
2013-02-23 07:03:00,40.2,40.2,29.90,South,180,0.0,0.0,100,0.06,,---,0.22,VWS V14.00,2013-02-23 12:03:00,
2013-02-23 07:08:00,40.4,40.4,29.90,South,180,0.0,0.0,100,0.06,,---,0.22,VWS V14.00,2013-02-23 12:08:00,
2013-02-23 07:13:00,40.4,40.4,29.90,South,180,0.0,0.0,100,0.04,,---,0.22,VWS V14.00,2013-02-23 12:13:00,
2013-02-23 07:18:00,40.6,40.6,29.90,South,180,0.0,0.0,100,0.04,,---,0.22,VWS V14.00,2013-02-23 12:18:00,
2013-02-23 07:23:00,40.6,40.6,29.90,South,180,0.0,0.0,100,0.02,,---,0.22,VWS V14.00,2013-02-23 12:23:00,
2013-02-23 07:28:00,40.8,40.8,29.90,South,180,0.0,0.0,100,0.02,,---,0.22,VWS V14.00,2013-02-23 12:28:00,
2013-02-23 07:33:00,40.8,40.8,29.90,South,180,0.0,0.0,100,0.02,,---,0.22,VWS V14.00,2013-02-23 12:33:00,
2013-02-23 07:38:00,40.8,40.8,29.90,South,180,0.0,0.0,100,0.02,,---,0.22,VWS V14.00,2013-02-23 12:38:00,
2013-02-23 07:43:00,41.0,41.0,29.90,South,180,0.0,0.0,100,0.02,,---,0.22,VWS V14.00,2013-02-23 12:43:00,
2013-02-23 07:48:00,41.1,41.1,29.90,South,180,0.0,0.0,100,0.02,,---,0.22,VWS V14.00,2013-02-23 12:48:00,
2013-02-23 07:53:00,41.3,41.3,29.90,South,180,0.0,0.0,100,0.02,,---,0.22,VWS V14.00,2013-02-23 12:53:00,
2013-02-23 07:58:00,41.3,41.3,29.90,South,180,0.0,0.0,100,0.02,,---,0.22,VWS V14.00,2013-02-23 12:58:00,
2013-02-23 08:03:00,41.3,41.3,29.90,South,180,0.0,0.0,100,0.00,,---,0.22,VWS V14.00,2013-02-23 13:03:00,
2013-02-23 08:08:00,41.5,41.5,29.90,South,180,0.0,0.0,100,0.00,,---,0.22,VWS V14.00,2013-02-23 13:08:00,
2013-02-23 08:13:00,41.5,41.5,29.90,South,180,0.0,0.0,100,0.00,,---,0.22,VWS V14.00,2013-02-23 13:13:00,
2013-02-23 08:18:00,41.5,41.5,29.90,South,180,0.0,0.0,100,0.00,,---,0.22,VWS V14.00,2013-02-23 13:18:00,
2013-02-23 08:23:00,41.7,41.7,29.90,South,180,0.0,0.0,100,0.00,,---,0.22,VWS V14.00,2013-02-23 13:23:00,
2013-02-23 08:28:00,41.9,41.9,29.90,South,180,0.0,0.0,100,0.00,,---,0.22,VWS V14.00,2013-02-23 13:28:00,
2013-02-23 08:33:00,41.7,41.7,29.91,South,180,0.0,0.0,100,0.00,,---,0.22,VWS V14.00,2013-02-23 13:33:00,
2013-02-23 08:38:00,41.9,41.9,29.90,South,180,0.0,0.0,100,0.00,,---,0.22,VWS V14.00,2013-02-23 13:38:00,
2013-02-23 08:43:00,42.0,42.0,29.91,South,180,0.0,0.0,100,0.00,,---,0.22,VWS V14.00,2013-02-23 13:43:00,
2013-02-23 08:48:00,42.0,42.0,29.91,South,180,0.0,0.0,100,0.00,,---,0.22,VWS V14.00,2013-02-23 13:48:00,
2013-02-23 08:53:00,42.4,42.4,29.91,South,180,0.0,0.0,100,0.00,,---,0.22,VWS V14.00,2013-02-23 13:53:00,
2013-02-23 08:58:00,42.8,42.8,29.91,South,180,0.0,0.0,100,0.00,,---,0.22,VWS V14.00,2013-02-23 13:58:00,
2013-02-23 09:03:00,43.1,43.1,29.92,South,180,0.0,0.0,100,0.00,,---,0.22,VWS V14.00,2013-02-23 14:03:00,
2013-02-23 09:08:00,43.5,43.5,29.91,South,180,0.0,0.0,100,0.00,,---,0.22,VWS V14.00,2013-02-23 14:08:00,
2013-02-23 09:13:00,43.8,43.8,29.91,South,180,0.0,0.0,100,0.00,,---,0.22,VWS V14.00,2013-02-23 14:13:00,
2013-02-23 09:18:00,44.0,44.0,29.92,South,180,0.0,0.0,100,0.00,,---,0.22,VWS V14.00,2013-02-23 14:18:00,
2013-02-23 09:23:00,44.2,44.2,29.91,South,180,0.0,0.0,100,0.00,,---,0.22,VWS V14.00,2013-02-23 14:23:00,
2013-02-23 09:28:00,44.7,44.7,29.92,South,180,0.0,0.0,100,0.00,,---,0.22,VWS V14.00,2013-02-23 14:28:00,
2013-02-23 09:34:00,45.1,45.1,29.91,South,180,0.0,0.0,100,0.00,,---,0.22,VWS V14.00,2013-02-23 14:34:00,
2013-02-23 09:39:00,45.3,45.3,29.91,South,180,0.0,0.0,100,0.02,,---,0.24,VWS V14.00,2013-02-23 14:39:00,
2013-02-23 09:44:00,45.5,45.5,29.91,South,180,0.0,0.0,100,0.02,,---,0.24,VWS V14.00,2013-02-23 14:44:00,
2013-02-23 09:49:00,45.6,45.6,29.91,South,180,0.0,0.0,100,0.02,,---,0.24,VWS V14.00,2013-02-23 14:49:00,
2013-02-23 09:54:00,46.0,46.0,29.91,South,180,0.0,0.0,100,0.02,,---,0.24,VWS V14.00,2013-02-23 14:54:00,
2013-02-23 09:59:00,46.0,46.0,29.90,South,180,0.0,0.0,100,0.02,,---,0.24,VWS V14.00,2013-02-23 14:59:00,
2013-02-23 10:04:00,46.0,46.0,29.90,South,180,2.2,2.2,100,0.02,,---,0.24,VWS V14.00,2013-02-23 15:04:00,
2013-02-23 10:09:00,46.2,45.9,29.89,South,180,0.0,2.2,99,0.02,,---,0.24,VWS V14.00,2013-02-23 15:09:00,
2013-02-23 10:14:00,46.7,46.4,29.89,South,180,0.0,0.0,99,0.02,,---,0.24,VWS V14.00,2013-02-23 15:14:00,
2013-02-23 10:19:00,46.9,46.6,29.90,South,180,0.0,0.0,99,0.02,,---,0.24,VWS V14.00,2013-02-23 15:19:00,
2013-02-23 10:24:00,47.1,46.8,29.90,South,180,0.0,0.0,99,0.02,,---,0.24,VWS V14.00,2013-02-23 15:24:00,
2013-02-23 10:29:00,47.3,47.0,29.90,South,180,0.0,0.0,99,0.02,,---,0.24,VWS V14.00,2013-02-23 15:29:00,
2013-02-23 10:34:00,47.3,46.8,29.90,South,180,0.0,0.0,98,0.02,,---,0.24,VWS V14.00,2013-02-23 15:34:00,
2013-02-23 10:39:00,47.1,46.6,29.90,South,180,0.0,0.0,98,0.02,,---,0.24,VWS V14.00,2013-02-23 15:39:00,
2013-02-23 10:44:00,47.1,46.6,29.90,South,180,0.0,0.0,98,0.00,,---,0.24,VWS V14.00,2013-02-23 15:44:00,
2013-02-23 10:49:00,47.1,46.6,29.90,South,180,0.0,0.0,98,0.00,,---,0.24,VWS V14.00,2013-02-23 15:49:00,
2013-02-23 10:54:00,47.4,46.9,29.90,South,180,0.0,0.0,98,0.00,,---,0.24,VWS V14.00,2013-02-23 15:54:00,
2013-02-23 10:59:00,47.6,47.1,29.90,South,180,0.0,0.0,98,0.00,,---,0.24,VWS V14.00,2013-02-23 15:59:00,
2013-02-23 11:04:00,48.2,47.7,29.90,South,180,0.0,0.0,98,0.00,,---,0.24,VWS V14.00,2013-02-23 16:04:00,
2013-02-23 11:09:00,48.5,48.0,29.90,South,180,0.0,0.0,98,0.00,,---,0.24,VWS V14.00,2013-02-23 16:09:00,
2013-02-23 11:14:00,48.7,48.2,29.90,South,180,0.0,0.0,98,0.00,,---,0.24,VWS V14.00,2013-02-23 16:14:00,
2013-02-23 11:19:00,49.1,48.3,29.90,South,180,0.0,0.0,97,0.00,,---,0.24,VWS V14.00,2013-02-23 16:19:00,
2013-02-23 11:24:00,49.6,49.1,29.90,South,180,0.0,0.0,98,0.00,,---,0.24,VWS V14.00,2013-02-23 16:24:00,
2013-02-23 11:29:00,49.8,49.0,29.90,South,180,0.0,0.0,97,0.00,,---,0.24,VWS V14.00,2013-02-23 16:29:00,
2013-02-23 11:34:00,50.5,49.7,29.90,South,180,0.0,0.0,97,0.00,,---,0.24,VWS V14.00,2013-02-23 16:34:00,
2013-02-23 11:39:00,50.7,49.9,29.90,South,180,0.0,0.0,97,0.00,,---,0.24,VWS V14.00,2013-02-23 16:39:00,
2013-02-23 11:44:00,50.9,49.8,29.90,SSE,158,0.0,0.0,96,0.00,,---,0.24,VWS V14.00,2013-02-23 16:44:00,
2013-02-23 11:49:00,50.9,49.5,29.90,SSE,158,0.0,0.0,95,0.00,,---,0.24,VWS V14.00,2013-02-23 16:49:00,
2013-02-23 11:55:00,50.9,49.5,29.90,SSE,158,0.0,0.0,95,0.00,,---,0.24,VWS V14.00,2013-02-23 16:55:00,
2013-02-23 12:00:00,50.9,49.5,29.90,SSE,158,0.0,0.0,95,0.00,,---,0.24,VWS V14.00,2013-02-23 17:00:00,
2013-02-23 12:05:00,51.0,49.6,29.89,SSE,158,0.0,0.0,95,0.00,,---,0.24,VWS V14.00,2013-02-23 17:05:00,
2013-02-23 12:10:00,51.2,49.8,29.90,SSE,158,0.0,0.0,95,0.00,,---,0.24,VWS V14.00,2013-02-23 17:10:00,
2013-02-23 12:15:00,51.6,50.2,29.89,SSE,158,0.0,0.0,95,0.00,,---,0.24,VWS V14.00,2013-02-23 17:15:00,
2013-02-23 12:20:00,52.3,50.9,29.89,SSE,158,0.0,0.4,95,0.00,,---,0.24,VWS V14.00,2013-02-23 17:20:00,
2013-02-23 12:25:00,52.7,51.0,29.88,SSE,158,0.0,0.0,94,0.00,,---,0.24,VWS V14.00,2013-02-23 17:25:00,
2013-02-23 12:30:00,52.7,51.0,29.88,SSE,158,0.0,0.0,94,0.00,,---,0.24,VWS V14.00,2013-02-23 17:30:00,
2013-02-23 12:35:00,52.8,50.8,29.88,SSE,158,0.0,0.0,93,0.00,,---,0.24,VWS V14.00,2013-02-23 17:35:00,
2013-02-23 12:40:00,53.2,51.2,29.87,SSE,158,0.0,0.0,93,0.00,,---,0.22,VWS V14.00,2013-02-23 17:40:00,
2013-02-23 12:45:00,53.2,51.2,29.87,SSE,158,0.0,0.0,93,0.00,,---,0.24,VWS V14.00,2013-02-23 17:45:00,
2013-02-23 12:50:00,53.4,51.4,29.87,SSE,158,0.0,0.0,93,0.00,,---,0.24,VWS V14.00,2013-02-23 17:50:00,
2013-02-23 12:55:00,53.4,51.4,29.87,SSE,158,0.0,0.0,93,0.00,,---,0.24,VWS V14.00,2013-02-23 17:55:00,
2013-02-23 13:00:00,53.4,51.1,29.86,ESE,112,0.0,0.0,92,0.00,,---,0.24,VWS V14.00,2013-02-23 18:00:00,
2013-02-23 13:05:00,53.4,50.8,29.86,ESE,112,0.0,0.0,91,0.00,,---,0.24,VWS V14.00,2013-02-23 18:05:00,
2013-02-23 13:10:00,53.4,50.8,29.86,ESE,112,0.0,0.0,91,0.00,,---,0.24,VWS V14.00,2013-02-23 18:10:00,
2013-02-23 13:15:00,53.7,51.4,29.86,ESE,112,0.0,0.0,92,0.00,,---,0.24,VWS V14.00,2013-02-23 18:15:00,
2013-02-23 13:20:00,54.1,51.5,29.86,ESE,112,0.0,0.0,91,0.00,,---,0.24,VWS V14.00,2013-02-23 18:20:00,
2013-02-23 13:25:00,54.3,51.7,29.86,ESE,112,0.0,0.0,91,0.00,,---,0.24,VWS V14.00,2013-02-23 18:25:00,
2013-02-23 13:30:00,54.3,51.7,29.86,ESE,112,0.0,0.0,91,0.00,,---,0.24,VWS V14.00,2013-02-23 18:30:00,
2013-02-23 13:35:00,54.5,51.9,29.86,ESE,112,0.0,0.0,91,0.00,,---,0.24,VWS V14.00,2013-02-23 18:35:00,
2013-02-23 13:40:00,54.5,51.9,29.86,ESE,112,0.0,0.0,91,0.00,,---,0.24,VWS V14.00,2013-02-23 18:40:00,
2013-02-23 13:45:00,54.6,51.7,29.86,ESE,112,0.0,0.0,90,0.00,,---,0.24,VWS V14.00,2013-02-23 18:45:00,
2013-02-23 13:50:00,54.5,51.6,29.85,ESE,112,0.0,0.0,90,0.00,,---,0.24,VWS V14.00,2013-02-23 18:50:00,
2013-02-23 13:55:00,54.6,51.7,29.85,ESE,112,0.0,0.0,90,0.00,,---,0.24,VWS V14.00,2013-02-23 18:55:00,
2013-02-23 14:00:00,54.3,51.4,29.85,East,90,0.0,0.0,90,0.00,,---,0.24,VWS V14.00,2013-02-23 19:00:00,
2013-02-23 14:05:00,54.3,51.4,29.85,East,90,0.0,0.0,90,0.00,,---,0.24,VWS V14.00,2013-02-23 19:05:00,
2013-02-23 14:10:00,54.3,51.4,29.85,East,90,0.4,0.4,90,0.00,,---,0.24,VWS V14.00,2013-02-23 19:10:00,
2013-02-23 14:15:00,54.3,51.4,29.85,East,90,0.0,0.4,90,0.00,,---,0.24,VWS V14.00,2013-02-23 19:15:00,
2013-02-23 14:20:00,54.3,51.4,29.85,East,90,0.0,0.0,90,0.00,,---,0.24,VWS V14.00,2013-02-23 19:20:00,
2013-02-23 14:25:00,54.5,51.6,29.85,East,90,0.0,0.0,90,0.00,,---,0.24,VWS V14.00,2013-02-23 19:25:00,
2013-02-23 14:30:00,54.5,51.6,29.85,East,90,0.0,0.0,90,0.00,,---,0.24,VWS V14.00,2013-02-23 19:30:00,
2013-02-23 14:35:00,54.6,51.7,29.85,East,90,0.0,0.0,90,0.00,,---,0.24,VWS V14.00,2013-02-23 19:35:00,
2013-02-23 14:40:00,54.6,51.7,29.85,East,90,0.0,0.0,90,0.00,,---,0.24,VWS V14.00,2013-02-23 19:40:00,
2013-02-23 14:45:00,54.5,51.6,29.84,East,90,0.0,0.0,90,0.00,,---,0.24,VWS V14.00,2013-02-23 19:45:00,
2013-02-23 14:50:00,54.5,51.6,29.85,East,90,0.0,0.0,90,0.00,,---,0.24,VWS V14.00,2013-02-23 19:50:00,
2013-02-23 14:55:00,54.6,51.7,29.85,East,90,0.0,0.0,90,0.00,,---,0.24,VWS V14.00,2013-02-23 19:55:00,
2013-02-23 15:00:00,54.6,51.7,29.84,East,90,0.0,0.0,90,0.00,,---,0.24,VWS V14.00,2013-02-23 20:00:00,
2013-02-23 15:06:00,54.6,51.7,29.84,East,90,0.0,0.0,90,0.00,,---,0.24,VWS V14.00,2013-02-23 20:06:00,
2013-02-23 15:11:00,54.6,51.7,29.84,East,90,0.0,0.0,90,0.00,,---,0.24,VWS V14.00,2013-02-23 20:11:00,
2013-02-23 15:16:00,54.6,51.7,29.85,East,90,0.0,0.0,90,0.00,,---,0.24,VWS V14.00,2013-02-23 20:16:00,
2013-02-23 15:21:00,55.0,52.1,29.84,East,90,0.0,0.0,90,0.00,,---,0.24,VWS V14.00,2013-02-23 20:21:00,
2013-02-23 15:26:00,55.0,52.1,29.83,East,90,0.0,0.0,90,0.00,,---,0.24,VWS V14.00,2013-02-23 20:26:00,
2013-02-23 15:31:00,55.2,52.3,29.83,East,90,0.0,0.0,90,0.00,,---,0.24,VWS V14.00,2013-02-23 20:31:00,
2013-02-23 15:36:00,55.2,52.3,29.83,East,90,0.0,0.0,90,0.00,,---,0.24,VWS V14.00,2013-02-23 20:36:00,
2013-02-23 15:41:00,55.4,52.2,29.83,East,90,0.0,0.0,89,0.00,,---,0.24,VWS V14.00,2013-02-23 20:41:00,
2013-02-23 15:46:00,55.4,52.2,29.84,East,90,0.0,0.0,89,0.00,,---,0.24,VWS V14.00,2013-02-23 20:46:00,
2013-02-23 15:51:00,55.4,52.2,29.84,East,90,0.0,0.0,89,0.00,,---,0.24,VWS V14.00,2013-02-23 20:51:00,
2013-02-23 15:56:00,55.2,51.7,29.84,East,90,1.3,1.3,88,0.00,,---,0.24,VWS V14.00,2013-02-23 20:56:00,
2013-02-23 16:01:00,55.0,51.5,29.83,East,90,0.0,0.0,88,0.00,,---,0.24,VWS V14.00,2013-02-23 21:01:00,
2013-02-23 16:06:00,54.6,51.1,29.83,East,90,0.0,0.0,88,0.00,,---,0.24,VWS V14.00,2013-02-23 21:06:00,
2013-02-23 16:11:00,54.5,51.3,29.84,East,90,0.0,0.0,89,0.00,,---,0.24,VWS V14.00,2013-02-23 21:11:00,
2013-02-23 16:16:00,54.3,51.1,29.84,East,90,0.0,0.0,89,0.00,,---,0.24,VWS V14.00,2013-02-23 21:16:00,
2013-02-23 16:21:00,54.1,50.9,29.83,East,90,0.0,0.0,89,0.00,,---,0.24,VWS V14.00,2013-02-23 21:21:00,
2013-02-23 16:26:00,53.7,50.5,29.83,East,90,0.0,0.0,89,0.00,,---,0.24,VWS V14.00,2013-02-23 21:26:00,
2013-02-23 16:31:00,53.4,50.2,29.83,East,90,0.0,0.0,89,0.00,,---,0.24,VWS V14.00,2013-02-23 21:31:00,
2013-02-23 16:36:00,53.2,50.0,29.82,East,90,0.0,0.0,89,0.00,,---,0.24,VWS V14.00,2013-02-23 21:36:00,
2013-02-23 16:41:00,53.0,49.8,29.83,East,90,0.0,0.0,89,0.00,,---,0.24,VWS V14.00,2013-02-23 21:41:00,
2013-02-23 16:46:00,52.8,50.0,29.83,East,90,0.0,0.0,90,0.00,,---,0.24,VWS V14.00,2013-02-23 21:46:00,
2013-02-23 16:51:00,52.8,50.0,29.83,East,90,0.0,0.0,90,0.00,,---,0.24,VWS V14.00,2013-02-23 21:51:00,
2013-02-23 16:56:00,52.7,49.8,29.82,East,90,0.0,0.0,90,0.00,,---,0.24,VWS V14.00,2013-02-23 21:56:00,
2013-02-23 17:01:00,52.5,49.7,29.82,East,90,0.0,0.0,90,0.00,,---,0.24,VWS V14.00,2013-02-23 22:01:00,
2013-02-23 17:06:00,52.1,49.3,29.82,East,90,0.0,0.0,90,0.00,,---,0.24,VWS V14.00,2013-02-23 22:06:00,
2013-02-23 17:11:00,52.1,49.3,29.82,East,90,0.0,0.0,90,0.00,,---,0.24,VWS V14.00,2013-02-23 22:11:00,
2013-02-23 17:16:00,51.9,49.1,29.82,East,90,0.0,0.0,90,0.00,,---,0.24,VWS V14.00,2013-02-23 22:16:00,
2013-02-23 17:21:00,51.6,49.1,29.82,East,90,0.0,0.0,91,0.00,,---,0.24,VWS V14.00,2013-02-23 22:21:00,
2013-02-23 17:26:00,51.6,49.1,29.82,East,90,0.0,0.0,91,0.00,,---,0.24,VWS V14.00,2013-02-23 22:26:00,
2013-02-23 17:31:00,51.4,48.9,29.82,East,90,0.0,0.0,91,0.00,,---,0.24,VWS V14.00,2013-02-23 22:31:00,
2013-02-23 17:36:00,51.2,48.7,29.82,East,90,0.0,0.0,91,0.00,,---,0.24,VWS V14.00,2013-02-23 22:36:00,
2013-02-23 17:41:00,51.0,48.8,29.82,East,90,0.0,0.0,92,0.00,,---,0.24,VWS V14.00,2013-02-23 22:41:00,
2013-02-23 17:46:00,50.9,48.7,29.82,East,90,0.0,0.0,92,0.00,,---,0.24,VWS V14.00,2013-02-23 22:46:00,
2013-02-23 17:51:00,50.7,48.5,29.82,East,90,0.0,0.0,92,0.00,,---,0.24,VWS V14.00,2013-02-23 22:51:00,
2013-02-23 17:56:00,50.7,48.5,29.82,East,90,0.0,0.0,92,0.00,,---,0.24,VWS V14.00,2013-02-23 22:56:00,
2013-02-23 18:01:00,50.5,48.3,29.81,East,90,0.0,0.0,92,0.00,,---,0.24,VWS V14.00,2013-02-23 23:01:00,
2013-02-23 18:06:00,50.1,47.9,29.81,East,90,0.0,0.0,92,0.00,,---,0.24,VWS V14.00,2013-02-23 23:06:00,
2013-02-23 18:11:00,50.1,48.2,29.81,East,90,0.0,0.0,93,0.00,,---,0.24,VWS V14.00,2013-02-23 23:11:00,
2013-02-23 18:16:00,49.8,47.9,29.80,East,90,0.0,0.0,93,0.00,,---,0.24,VWS V14.00,2013-02-23 23:16:00,
2013-02-23 18:21:00,49.8,47.9,29.80,East,90,0.0,0.0,93,0.00,,---,0.24,VWS V14.00,2013-02-23 23:21:00,
2013-02-23 18:26:00,49.8,47.9,29.81,East,90,0.0,0.0,93,0.00,,---,0.24,VWS V14.00,2013-02-23 23:26:00,
2013-02-23 18:31:00,49.6,47.7,29.79,East,90,0.0,0.0,93,0.00,,---,0.24,VWS V14.00,2013-02-23 23:31:00,
2013-02-23 18:36:00,49.6,47.7,29.80,East,90,0.0,0.0,93,0.00,,---,0.24,VWS V14.00,2013-02-23 23:36:00,
2013-02-23 18:41:00,49.2,47.5,29.80,East,90,0.0,0.0,94,0.00,,---,0.24,VWS V14.00,2013-02-23 23:41:00,
2013-02-23 18:46:00,49.2,47.5,29.81,East,90,0.0,0.0,94,0.00,,---,0.24,VWS V14.00,2013-02-23 23:46:00,
2013-02-23 18:51:00,49.2,47.5,29.81,East,90,0.0,0.0,94,0.00,,---,0.24,VWS V14.00,2013-02-23 23:51:00,
2013-02-23 18:57:00,49.1,47.5,29.80,East,90,0.0,0.0,94,0.00,,---,0.24,VWS V14.00,2013-02-23 23:57:00,
2013-02-23 19:02:00,49.1,47.5,29.81,East,90,0.0,0.0,94,0.00,,---,0.24,VWS V14.00,2013-02-24 00:02:00,
2013-02-23 19:07:00,48.9,47.2,29.82,East,90,0.0,0.0,94,0.00,,---,0.24,VWS V14.00,2013-02-24 00:07:00,
2013-02-23 19:12:00,48.9,47.2,29.81,East,90,0.0,0.0,94,0.00,,---,0.24,VWS V14.00,2013-02-24 00:12:00,
2013-02-23 19:17:00,48.7,47.0,29.81,East,90,0.0,0.0,94,0.00,,---,0.24,VWS V14.00,2013-02-24 00:17:00,
2013-02-23 19:22:00,48.7,47.0,29.81,East,90,0.0,0.0,94,0.00,,---,0.24,VWS V14.00,2013-02-24 00:22:00,
2013-02-23 19:27:00,48.5,47.1,29.81,East,90,0.0,0.0,95,0.00,,---,0.24,VWS V14.00,2013-02-24 00:27:00,
2013-02-23 19:32:00,48.3,46.9,29.81,East,90,0.0,0.0,95,0.00,,---,0.24,VWS V14.00,2013-02-24 00:32:00,
2013-02-23 19:37:00,48.3,46.9,29.80,East,90,0.0,0.0,95,0.00,,---,0.24,VWS V14.00,2013-02-24 00:37:00,
2013-02-23 19:42:00,48.2,46.8,29.81,East,90,0.0,0.0,95,0.00,,---,0.24,VWS V14.00,2013-02-24 00:42:00,
2013-02-23 19:47:00,48.0,46.6,29.82,East,90,0.0,0.0,95,0.00,,---,0.24,VWS V14.00,2013-02-24 00:47:00,
2013-02-23 19:52:00,48.0,46.9,29.82,East,90,0.0,0.0,96,0.00,,---,0.24,VWS V14.00,2013-02-24 00:52:00,
2013-02-23 19:57:00,48.0,46.9,29.82,East,90,0.0,0.0,96,0.00,,---,0.24,VWS V14.00,2013-02-24 00:57:00,
2013-02-23 20:02:00,48.0,46.9,29.82,East,90,0.0,0.0,96,0.00,,---,0.24,VWS V14.00,2013-02-24 01:02:00,
2013-02-23 20:07:00,47.8,46.7,29.82,East,90,0.0,0.0,96,0.00,,---,0.24,VWS V14.00,2013-02-24 01:07:00,
2013-02-23 20:12:00,47.8,46.7,29.82,East,90,0.0,0.0,96,0.00,,---,0.24,VWS V14.00,2013-02-24 01:12:00,
2013-02-23 20:17:00,47.8,46.7,29.81,East,90,0.0,0.0,96,0.00,,---,0.24,VWS V14.00,2013-02-24 01:17:00,
2013-02-23 20:22:00,47.6,46.8,29.80,East,90,0.0,0.0,97,0.00,,---,0.24,VWS V14.00,2013-02-24 01:22:00,
2013-02-23 20:27:00,47.6,46.8,29.81,East,90,0.0,0.0,97,0.00,,---,0.24,VWS V14.00,2013-02-24 01:27:00,
2013-02-23 20:32:00,47.6,46.8,29.82,East,90,0.0,0.0,97,0.00,,---,0.24,VWS V14.00,2013-02-24 01:32:00,
2013-02-23 20:37:00,47.6,46.8,29.82,East,90,0.0,0.0,97,0.00,,---,0.24,VWS V14.00,2013-02-24 01:37:00,
2013-02-23 20:42:00,47.6,46.8,29.82,East,90,0.0,0.0,97,0.00,,---,0.24,VWS V14.00,2013-02-24 01:42:00,
2013-02-23 20:47:00,47.6,46.8,29.82,East,90,0.0,0.0,97,0.00,,---,0.24,VWS V14.00,2013-02-24 01:47:00,
2013-02-23 20:52:00,47.6,46.8,29.82,East,90,0.0,0.0,97,0.00,,---,0.24,VWS V14.00,2013-02-24 01:52:00,
2013-02-23 20:57:00,47.6,46.8,29.82,East,90,0.0,0.0,97,0.00,,---,0.24,VWS V14.00,2013-02-24 01:57:00,
2013-02-23 21:02:00,47.6,46.8,29.82,East,90,0.0,0.0,97,0.00,,---,0.24,VWS V14.00,2013-02-24 02:02:00,
2013-02-23 21:07:00,47.6,46.8,29.82,East,90,0.0,0.0,97,0.00,,---,0.24,VWS V14.00,2013-02-24 02:07:00,
2013-02-23 21:12:00,47.6,46.8,29.82,East,90,0.0,0.0,97,0.00,,---,0.24,VWS V14.00,2013-02-24 02:12:00,
2013-02-23 21:17:00,47.4,46.6,29.82,East,90,0.0,0.0,97,0.00,,---,0.24,VWS V14.00,2013-02-24 02:17:00,
2013-02-23 21:22:00,47.4,46.6,29.82,East,90,0.0,0.0,97,0.00,,---,0.24,VWS V14.00,2013-02-24 02:22:00,
2013-02-23 21:27:00,47.3,46.5,29.82,East,90,0.0,0.0,97,0.00,,---,0.24,VWS V14.00,2013-02-24 02:27:00,
2013-02-23 21:32:00,47.3,46.2,29.82,East,90,0.0,0.0,96,0.00,,---,0.24,VWS V14.00,2013-02-24 02:32:00,
2013-02-23 21:37:00,47.1,46.3,29.82,East,90,0.0,0.0,97,0.00,,---,0.24,VWS V14.00,2013-02-24 02:37:00,
2013-02-23 21:42:00,47.1,46.3,29.82,East,90,0.0,0.0,97,0.00,,---,0.24,VWS V14.00,2013-02-24 02:42:00,
2013-02-23 21:47:00,46.9,46.1,29.82,East,90,0.0,0.0,97,0.00,,---,0.24,VWS V14.00,2013-02-24 02:47:00,
2013-02-23 21:52:00,46.9,46.1,29.82,East,90,0.0,0.0,97,0.00,,---,0.24,VWS V14.00,2013-02-24 02:52:00,
2013-02-23 21:57:00,46.9,46.1,29.82,East,90,0.0,0.0,97,0.00,,---,0.24,VWS V14.00,2013-02-24 02:57:00,
2013-02-23 22:02:00,46.7,45.9,29.81,East,90,0.0,0.0,97,0.00,,---,0.24,VWS V14.00,2013-02-24 03:02:00,
2013-02-23 22:07:00,46.5,45.7,29.82,East,90,0.0,0.0,97,0.00,,---,0.24,VWS V14.00,2013-02-24 03:07:00,
2013-02-23 22:12:00,46.2,45.4,29.82,East,90,0.0,0.0,97,0.00,,---,0.24,VWS V14.00,2013-02-24 03:12:00,
2013-02-23 22:17:00,46.0,45.2,29.82,East,90,0.0,0.0,97,0.00,,---,0.24,VWS V14.00,2013-02-24 03:17:00,
2013-02-23 22:22:00,45.6,44.8,29.82,East,90,0.0,0.0,97,0.00,,---,0.24,VWS V14.00,2013-02-24 03:22:00,
2013-02-23 22:27:00,45.5,44.7,29.81,East,90,0.0,0.0,97,0.00,,---,0.24,VWS V14.00,2013-02-24 03:27:00,
2013-02-23 22:32:00,44.9,44.1,29.82,East,90,0.0,0.0,97,0.00,,---,0.24,VWS V14.00,2013-02-24 03:32:00,
2013-02-23 22:37:00,44.7,43.9,29.82,East,90,0.0,0.0,97,0.00,,---,0.24,VWS V14.00,2013-02-24 03:37:00,
2013-02-23 22:42:00,44.4,43.6,29.82,East,90,0.0,0.0,97,0.00,,---,0.24,VWS V14.00,2013-02-24 03:42:00,
2013-02-23 22:47:00,44.0,43.2,29.82,East,90,0.0,0.0,97,0.00,,---,0.24,VWS V14.00,2013-02-24 03:47:00,
2013-02-23 22:52:00,43.7,42.9,29.82,East,90,0.0,0.0,97,0.00,,---,0.24,VWS V14.00,2013-02-24 03:52:00,
2013-02-23 22:57:00,43.3,42.5,29.82,East,90,0.0,0.0,97,0.00,,---,0.24,VWS V14.00,2013-02-24 03:57:00,
2013-02-23 23:02:00,43.1,42.3,29.82,East,90,0.0,0.0,97,0.00,,---,0.24,VWS V14.00,2013-02-24 04:02:00,
2013-02-23 23:07:00,42.9,42.1,29.82,East,90,0.0,0.0,97,0.00,,---,0.24,VWS V14.00,2013-02-24 04:07:00,
2013-02-23 23:12:00,42.6,41.8,29.82,East,90,0.0,0.0,97,0.00,,---,0.24,VWS V14.00,2013-02-24 04:12:00,
2013-02-23 23:17:00,42.6,41.8,29.82,East,90,0.0,0.0,97,0.00,,---,0.24,VWS V14.00,2013-02-24 04:17:00,
2013-02-23 23:22:00,42.4,41.6,29.82,East,90,0.0,0.0,97,0.00,,---,0.24,VWS V14.00,2013-02-24 04:22:00,
2013-02-23 23:27:00,41.9,41.1,29.82,East,90,0.0,0.0,97,0.00,,---,0.24,VWS V14.00,2013-02-24 04:27:00,
2013-02-23 23:32:00,41.5,40.7,29.82,East,90,0.0,0.0,97,0.00,,---,0.24,VWS V14.00,2013-02-24 04:32:00,
2013-02-23 23:37:00,41.3,40.5,29.82,East,90,0.0,0.0,97,0.00,,---,0.24,VWS V14.00,2013-02-24 04:37:00,
2013-02-23 23:43:00,41.1,40.3,29.82,East,90,0.0,0.0,97,0.00,,---,0.24,VWS V14.00,2013-02-24 04:43:00,
2013-02-23 23:48:00,40.8,40.0,29.82,East,90,0.0,0.0,97,0.00,,---,0.24,VWS V14.00,2013-02-24 04:48:00,
2013-02-23 23:53:00,40.6,39.8,29.82,East,90,0.0,0.0,97,0.00,,---,0.24,VWS V14.00,2013-02-24 04:53:00,
2013-02-23 23:58:00,40.2,39.4,29.82,East,90,0.0,0.0,97,0.00,,---,0.24,VWS V14.00,2013-02-24 04:58:00,